| time (UTC) | temp C | wind direction | speed KPH | gust KPH | rain 1hr cm | rain 24hr cm | rain mn cm | humidity % | barometer mb |
| 20260507180130 | 18 | 20 | 0.0 | 3.2 | 0.00 | 0.00 | 0.00 | 34 | 1020.1 |
| 20260507175626 | 17 | 30 | 0.0 | 8.0 | 0.00 | 0.00 | 0.00 | 35 | 1020.0 |
| 20260507175123 | 16 | 333 | 3.2 | 16.1 | 0.00 | 0.00 | 0.00 | 35 | 1020.1 |
| 20260507174620 | 16 | 243 | 1.6 | 11.3 | 0.00 | 0.00 | 0.00 | 38 | 1019.8 |
| 20260507174118 | 17 | 20 | 1.6 | 8.0 | 0.00 | 0.00 | 0.00 | 37 | 1020.3 |
| 20260507173615 | 18 | 114 | 0.0 | 4.8 | 0.00 | 0.00 | 0.00 | 34 | 1020.3 |
| 20260507173112 | 16 | 0 | 0.0 | 11.3 | 0.00 | 0.00 | 0.00 | 37 | 1020.3 |
| 20260507172608 | 17 | 250 | 3.2 | 4.8 | 0.00 | 0.00 | 0.00 | 36 | 1020.6 |
| 20260507172106 | 16 | 151 | 3.2 | 14.5 | 0.00 | 0.00 | 0.00 | 36 | 1020.4 |
| 20260507171600 | 16 | 23 | 3.2 | 8.0 | 0.00 | 0.00 | 0.00 | 36 | 1020.5 |
| 20260507171058 | 17 | 156 | 4.8 | 8.0 | 0.00 | 0.00 | 0.00 | 34 | 1020.6 |
| 20260507170555 | 17 | 157 | 6.4 | 8.0 | 0.00 | 0.00 | 0.00 | 33 | 1020.8 |
| 20260507170051 | 16 | 336 | 3.2 | 8.0 | 0.00 | 0.00 | 0.00 | 41 | 1020.9 |
| 20260507165547 | 16 | 47 | 11.3 | 14.5 | 0.00 | 0.00 | 0.00 | 37 | 1021.1 |
| 20260507165044 | 16 | 178 | 3.2 | 8.0 | 0.00 | 0.00 | 0.00 | 37 | 1021.1 |
| 20260507164540 | 16 | 10 | 4.8 | 4.8 | 0.00 | 0.00 | 0.00 | 37 | 1020.9 |
| 20260507164037 | 16 | 149 | 3.2 | 11.3 | 0.00 | 0.00 | 0.00 | 37 | 1020.8 |
| 20260507163534 | 17 | 39 | 3.2 | 8.0 | 0.00 | 0.00 | 0.00 | 36 | 1020.8 |
| 20260507163033 | 16 | 96 | 6.4 | 14.5 | 0.00 | 0.00 | 0.00 | 37 | 1020.7 |
| 20260507162533 | 16 | 12 | 0.0 | 3.2 | 0.00 | 0.00 | 0.00 | 38 | 1020.7 |
| 20260507162030 | 15 | 358 | 1.6 | 4.8 | 0.00 | 0.00 | 0.00 | 41 | 1021.0 |
| 20260507161526 | 15 | 22 | 3.2 | 14.5 | 0.00 | 0.00 | 0.00 | 40 | 1021.0 |
| 20260507161023 | 15 | 327 | 4.8 | 8.0 | 0.00 | 0.00 | 0.00 | 39 | 1021.1 |
| 20260507160519 | 16 | 185 | 4.8 | 8.0 | 0.00 | 0.00 | 0.00 | 37 | 1021.1 |
| 20260507160016 | 15 | 306 | 6.4 | 14.5 | 0.00 | 0.00 | 0.00 | 40 | 1021.0 |
| 20260507155511 | 15 | 293 | 1.6 | 14.5 | 0.00 | 0.00 | 0.00 | 39 | 1020.9 |
| 20260507155008 | 15 | 198 | 6.4 | 11.3 | 0.00 | 0.00 | 0.00 | 38 | 1020.9 |
| 20260507154505 | 15 | 35 | 6.4 | 11.3 | 0.00 | 0.00 | 0.00 | 40 | 1021.0 |
| 20260507154002 | 16 | 22 | 1.6 | 4.8 | 0.00 | 0.00 | 0.00 | 41 | 1020.9 |
| 20260507153459 | 15 | 107 | 0.0 | 3.2 | 0.00 | 0.00 | 0.00 | 43 | 1020.9 |
| 20260507152955 | 16 | 0 | 3.2 | 4.8 | 0.00 | 0.00 | 0.00 | 39 | 1020.8 |
| 20260507152451 | 15 | 46 | 3.2 | 4.8 | 0.00 | 0.00 | 0.00 | 40 | 1020.7 |
| 20260507151947 | 15 | 276 | 0.0 | 3.2 | 0.00 | 0.00 | 0.00 | 42 | 1021.1 |
| 20260507151444 | 15 | 25 | 0.0 | 3.2 | 0.00 | 0.00 | 0.00 | 43 | 1020.6 |
| 20260507150940 | 15 | 224 | 1.6 | 4.8 | 0.00 | 0.00 | 0.00 | 41 | 1020.9 |
| 20260507150437 | 14 | 20 | 0.0 | 3.2 | 0.00 | 0.00 | 0.00 | 43 | 1020.6 |
| 20260507145934 | 14 | 130 | 3.2 | 14.5 | 0.00 | 0.00 | 0.00 | 43 | 1020.8 |
| 20260507145429 | 14 | 24 | 1.6 | 4.8 | 0.00 | 0.00 | 0.00 | 42 | 1020.6 |
| 20260507144927 | 13 | 3 | 0.0 | 8.0 | 0.00 | 0.00 | 0.00 | 44 | 1020.6 |
| 20260507144424 | 13 | 92 | 1.6 | 14.5 | 0.00 | 0.00 | 0.00 | 44 | 1020.7 |
| 20260507143921 | 13 | 107 | 0.0 | 3.2 | 0.00 | 0.00 | 0.00 | 46 | 1020.9 |
| 20260507143418 | 13 | 316 | 0.0 | 3.2 | 0.00 | 0.00 | 0.00 | 46 | 1020.7 |
| 20260507142914 | 13 | 30 | 0.0 | 3.2 | 0.00 | 0.00 | 0.00 | 47 | 1020.8 |
| 20260507142410 | 13 | 359 | 0.0 | 3.2 | 0.00 | 0.00 | 0.00 | 47 | 1020.8 |
| 20260507141908 | 12 | 178 | 0.0 | 4.8 | 0.00 | 0.00 | 0.00 | 46 | 1020.8 |
| 20260507141404 | 12 | 29 | 0.0 | 3.2 | 0.00 | 0.00 | 0.00 | 48 | 1020.8 |
| 20260507140900 | 12 | 144 | 3.2 | 4.8 | 0.00 | 0.00 | 0.00 | 49 | 1020.8 |
| 20260507140357 | 12 | 175 | 1.6 | 3.2 | 0.00 | 0.00 | 0.00 | 49 | 1020.8 |
| 20260507135855 | 12 | 10 | 0.0 | 4.8 | 0.00 | 0.00 | 0.00 | 49 | 1020.4 |
| 20260507135351 | 12 | 351 | 1.6 | 3.2 | 0.00 | 0.00 | 0.00 | 49 | 1020.7 |
| 20260507134849 | 12 | 17 | 0.0 | 3.2 | 0.00 | 0.00 | 0.00 | 52 | 1020.7 |
| 20260507134345 | 12 | 27 | 0.0 | 4.8 | 0.00 | 0.00 | 0.00 | 50 | 1020.6 |
| 20260507133841 | 11 | 6 | 1.6 | 4.8 | 0.00 | 0.00 | 0.00 | 52 | 1020.8 |
| 20260507133337 | 11 | 144 | 1.6 | 3.2 | 0.00 | 0.00 | 0.00 | 52 | 1020.9 |
| 20260507132836 | 11 | 342 | 0.0 | 3.2 | 0.00 | 0.00 | 0.00 | 54 | 1021.0 |
| 20260507132331 | 11 | 18 | 0.0 | 0.0 | 0.00 | 0.00 | 0.00 | 55 | 1020.7 |
| 20260507131829 | 10 | 172 | 1.6 | 4.8 | 0.00 | 0.00 | 0.00 | 55 | 1020.8 |
| 20260507131325 | 10 | 101 | 0.0 | 3.2 | 0.00 | 0.00 | 0.00 | 57 | 1020.8 |
| 20260507130822 | 10 | 75 | 0.0 | 3.2 | 0.00 | 0.00 | 0.00 | 57 | 1020.9 |
| 20260507130319 | 10 | 125 | 1.6 | 3.2 | 0.00 | 0.00 | 0.00 | 58 | 1020.8 |
| 20260507125818 | 10 | 175 | 0.0 | 4.8 | 0.00 | 0.00 | 0.00 | 57 | 1020.7 |
| 20260507125315 | 10 | 149 | 1.6 | 4.8 | 0.00 | 0.00 | 0.00 | 58 | 1020.8 |
| 20260507124813 | 10 | 70 | 0.0 | 3.2 | 0.00 | 0.00 | 0.00 | 59 | 1021.0 |
| 20260507124309 | 10 | 93 | 0.0 | 3.2 | 0.00 | 0.00 | 0.00 | 62 | 1021.1 |
| 20260507123808 | 9 | 49 | 1.6 | 4.8 | 0.00 | 0.00 | 0.00 | 62 | 1020.8 |
| 20260507123305 | 9 | 95 | 1.6 | 4.8 | 0.00 | 0.00 | 0.00 | 62 | 1021.1 |
| 20260507122800 | 9 | 27 | 1.6 | 3.2 | 0.00 | 0.00 | 0.00 | 63 | 1021.2 |
| 20260507122256 | 9 | 43 | 0.0 | 3.2 | 0.00 | 0.00 | 0.00 | 66 | 1020.9 |
| 20260507121752 | 9 | 17 | 0.0 | 3.2 | 0.00 | 0.00 | 0.00 | 65 | 1021.2 |
| 20260507121248 | 9 | 39 | 0.0 | 8.0 | 0.00 | 0.00 | 0.00 | 65 | 1020.9 |
| 20260507120744 | 8 | 160 | 0.0 | 4.8 | 0.00 | 0.00 | 0.00 | 68 | 1021.2 |
| 20260507120241 | 8 | 27 | 0.0 | 4.8 | 0.00 | 0.00 | 0.00 | 68 | 1020.9 |
| 20260507115737 | 8 | 67 | 1.6 | 4.8 | 0.00 | 0.00 | 0.00 | 69 | 1020.9 |
| 20260507115233 | 8 | 51 | 0.0 | 3.2 | 0.00 | 0.00 | 0.00 | 70 | 1020.9 |
| 20260507114729 | 8 | 88 | 1.6 | 4.8 | 0.00 | 0.00 | 0.00 | 70 | 1020.8 |
| 20260507114227 | 8 | 54 | 0.0 | 0.0 | 0.00 | 0.00 | 0.00 | 73 | 1020.8 |
| 20260507113724 | 8 | 42 | 0.0 | 3.2 | 0.00 | 0.00 | 0.00 | 74 | 1020.6 |
| 20260507113221 | 8 | 106 | 1.6 | 3.2 | 0.00 | 0.00 | 0.00 | 76 | 1020.8 |
| 20260507112718 | 7 | 63 | 0.0 | 4.8 | 0.00 | 0.00 | 0.00 | 79 | 1020.8 |
| 20260507112215 | 7 | 48 | 0.0 | 3.2 | 0.00 | 0.00 | 0.00 | 85 | 1020.5 |
| 20260507111712 | 6 | 36 | 0.0 | 3.2 | 0.00 | 0.00 | 0.00 | 90 | 1020.6 |
| 20260507111209 | 6 | 111 | 0.0 | 3.2 | 0.00 | 0.00 | 0.00 | 93 | 1020.5 |
| 20260507110705 | 6 | 25 | 0.0 | 0.0 | 0.00 | 0.00 | 0.00 | 94 | 1020.5 |
| 20260507110202 | 6 | 36 | 0.0 | 0.0 | 0.00 | 0.00 | 0.00 | 95 | 1020.2 |
| 20260507105659 | 6 | 35 | 0.0 | 0.0 | 0.00 | 0.00 | 0.00 | 95 | 1020.1 |
| 20260507105155 | 6 | 36 | 0.0 | 0.0 | 0.00 | 0.00 | 0.00 | 95 | 1020.0 |
| 20260507104652 | 5 | 35 | 0.0 | 0.0 | 0.00 | 0.00 | 0.00 | 95 | 1020.1 |
| 20260507104148 | 6 | 36 | 0.0 | 0.0 | 0.00 | 0.00 | 0.00 | 95 | 1020.0 |
| 20260507103644 | 6 | 36 | 0.0 | 0.0 | 0.00 | 0.00 | 0.00 | 95 | 1020.2 |
| 20260507103141 | 5 | 36 | 0.0 | 0.0 | 0.00 | 0.00 | 0.00 | 95 | 1020.0 |
| 20260507102638 | 5 | 35 | 0.0 | 0.0 | 0.00 | 0.00 | 0.00 | 95 | 1019.8 |
| 20260507102134 | 6 | 35 | 0.0 | 0.0 | 0.00 | 0.00 | 0.00 | 95 | 1020.1 |
| 20260507101630 | 6 | 35 | 0.0 | 0.0 | 0.00 | 0.00 | 0.00 | 94 | 1019.9 |
| 20260507101126 | 6 | 35 | 0.0 | 0.0 | 0.00 | 0.00 | 0.00 | 94 | 1020.0 |
| 20260507100624 | 6 | 35 | 0.0 | 0.0 | 0.00 | 0.00 | 0.00 | 94 | 1020.1 |
| 20260507100122 | 6 | 35 | 0.0 | 0.0 | 0.00 | 0.00 | 0.00 | 94 | 1020.1 |
| 20260507095620 | 6 | 35 | 0.0 | 0.0 | 0.00 | 0.00 | 0.00 | 94 | 1019.9 |
| 20260507095116 | 6 | 35 | 0.0 | 0.0 | 0.00 | 0.00 | 0.00 | 93 | 1020.1 |
| 20260507094612 | 6 | 35 | 0.0 | 0.0 | 0.00 | 0.00 | 0.00 | 93 | 1019.9 |
| 20260507094109 | 6 | 35 | 0.0 | 0.0 | 0.00 | 0.00 | 0.00 | 93 | 1019.9 |
| 20260507093606 | 6 | 35 | 0.0 | 0.0 | 0.00 | 0.00 | 0.00 | 92 | 1020.0 |
| 20260507093105 | 6 | 35 | 0.0 | 0.0 | 0.00 | 0.00 | 0.00 | 92 | 1020.0 |
| 20260507092601 | 6 | 35 | 0.0 | 0.0 | 0.00 | 0.00 | 0.00 | 91 | 1019.9 |
| 20260507092058 | 6 | 35 | 0.0 | 0.0 | 0.00 | 0.00 | 0.00 | 90 | 1019.8 |
| 20260507091555 | 7 | 34 | 0.0 | 0.0 | 0.00 | 0.00 | 0.00 | 90 | 1020.0 |
| 20260507091051 | 7 | 34 | 0.0 | 0.0 | 0.00 | 0.00 | 0.00 | 90 | 1020.1 |
| 20260507090546 | 7 | 34 | 0.0 | 0.0 | 0.00 | 0.00 | 0.00 | 89 | 1020.2 |
| 20260507090044 | 7 | 35 | 0.0 | 0.0 | 0.00 | 0.00 | 0.00 | 89 | 1019.8 |
| 20260507085541 | 7 | 35 | 0.0 | 0.0 | 0.00 | 0.00 | 0.00 | 88 | 1019.8 |
| 20260507085037 | 7 | 34 | 0.0 | 0.0 | 0.00 | 0.00 | 0.00 | 87 | 1020.0 |
| 20260507084534 | 7 | 34 | 0.0 | 0.0 | 0.00 | 0.00 | 0.00 | 86 | 1020.1 |
| 20260507084031 | 7 | 34 | 0.0 | 0.0 | 0.00 | 0.00 | 0.00 | 85 | 1019.9 |
| 20260507083527 | 7 | 34 | 0.0 | 0.0 | 0.00 | 0.00 | 0.00 | 85 | 1019.8 |
| 20260507083025 | 7 | 34 | 0.0 | 0.0 | 0.00 | 0.00 | 0.00 | 84 | 1019.8 |
| 20260507082520 | 8 | 33 | 0.0 | 0.0 | 0.00 | 0.00 | 0.00 | 84 | 1019.6 |
| 20260507082017 | 8 | 34 | 0.0 | 0.0 | 0.00 | 0.00 | 0.00 | 84 | 1019.6 |
| 20260507081513 | 8 | 20 | 0.0 | 0.0 | 0.00 | 0.00 | 0.00 | 84 | 1019.7 |
| 20260507081010 | 8 | 38 | 0.0 | 0.0 | 0.00 | 0.00 | 0.00 | 84 | 1019.5 |
| 20260507080506 | 8 | 41 | 0.0 | 0.0 | 0.00 | 0.00 | 0.00 | 83 | 1019.5 |
| 20260507080001 | 8 | 38 | 0.0 | 0.0 | 0.00 | 0.00 | 0.00 | 83 | 1019.8 |
| 20260507075458 | 8 | 38 | 0.0 | 0.0 | 0.00 | 0.00 | 0.00 | 83 | 1019.4 |
| 20260507074954 | 8 | 38 | 0.0 | 0.0 | 0.00 | 0.00 | 0.00 | 84 | 1019.4 |
| 20260507074451 | 8 | 38 | 0.0 | 0.0 | 0.00 | 0.00 | 0.00 | 84 | 1019.2 |
| 20260507073950 | 8 | 39 | 0.0 | 0.0 | 0.00 | 0.00 | 0.00 | 83 | 1019.5 |
| 20260507073445 | 9 | 36 | 0.0 | 0.0 | 0.00 | 0.00 | 0.00 | 83 | 1019.6 |
| 20260507072942 | 9 | 36 | 0.0 | 0.0 | 0.00 | 0.00 | 0.00 | 81 | 1019.8 |
| 20260507072440 | 9 | 37 | 0.0 | 0.0 | 0.00 | 0.00 | 0.00 | 80 | 1019.7 |
| 20260507071937 | 10 | 25 | 0.0 | 0.0 | 0.00 | 0.00 | 0.00 | 81 | 1019.6 |
| 20260507071434 | 10 | 31 | 0.0 | 0.0 | 0.00 | 0.00 | 0.00 | 79 | 1019.5 |
| 20260507070930 | 9 | 39 | 0.0 | 0.0 | 0.00 | 0.00 | 0.00 | 82 | 1019.7 |
| 20260507070428 | 9 | 85 | 0.0 | 0.0 | 0.00 | 0.00 | 0.00 | 82 | 1019.6 |
| 20260507065924 | 9 | 49 | 0.0 | 0.0 | 0.00 | 0.00 | 0.00 | 82 | 1019.6 |
| 20260507065421 | 9 | 45 | 0.0 | 0.0 | 0.00 | 0.00 | 0.00 | 80 | 1019.7 |
| 20260507064919 | 9 | 45 | 0.0 | 0.0 | 0.00 | 0.00 | 0.00 | 81 | 1019.7 |
| 20260507064417 | 9 | 40 | 0.0 | 0.0 | 0.00 | 0.00 | 0.00 | 80 | 1019.6 |
| 20260507063914 | 9 | 40 | 0.0 | 0.0 | 0.00 | 0.00 | 0.00 | 80 | 1019.6 |
| 20260507063411 | 10 | 47 | 0.0 | 0.0 | 0.00 | 0.00 | 0.00 | 82 | 1019.6 |
| 20260507062908 | 10 | 44 | 0.0 | 0.0 | 0.00 | 0.00 | 0.00 | 81 | 1019.9 |
| 20260507062405 | 10 | 39 | 0.0 | 0.0 | 0.00 | 0.00 | 0.00 | 80 | 1019.8 |
| 20260507061903 | 10 | 43 | 0.0 | 0.0 | 0.00 | 0.00 | 0.00 | 79 | 1020.0 |
| 20260507061401 | 10 | 30 | 0.0 | 0.0 | 0.00 | 0.00 | 0.00 | 78 | 1020.2 |
| 20260507060859 | 10 | 30 | 0.0 | 0.0 | 0.00 | 0.00 | 0.00 | 78 | 1020.2 |
| 20260507060355 | 10 | 30 | 0.0 | 0.0 | 0.00 | 0.00 | 0.00 | 75 | 1020.1 |
| 20260507055853 | 10 | 30 | 0.0 | 0.0 | 0.00 | 0.00 | 0.00 | 75 | 1020.1 |
| 20260507055353 | 10 | 30 | 0.0 | 0.0 | 0.00 | 0.00 | 0.00 | 74 | 1019.9 |
| 20260507054850 | 10 | 30 | 0.0 | 0.0 | 0.00 | 0.00 | 0.00 | 74 | 1020.0 |
| 20260507054346 | 11 | 38 | 0.0 | 0.0 | 0.00 | 0.00 | 0.00 | 72 | 1019.7 |
| 20260507053843 | 11 | 38 | 0.0 | 0.0 | 0.00 | 0.00 | 0.00 | 72 | 1019.6 |
| 20260507053341 | 11 | 38 | 0.0 | 0.0 | 0.00 | 0.00 | 0.00 | 71 | 1019.8 |
| 20260507052840 | 11 | 47 | 0.0 | 0.0 | 0.00 | 0.00 | 0.00 | 73 | 1019.7 |
| 20260507052336 | 11 | 26 | 0.0 | 0.0 | 0.00 | 0.00 | 0.00 | 72 | 1019.9 |
| 20260507051834 | 11 | 43 | 0.0 | 0.0 | 0.00 | 0.00 | 0.00 | 75 | 1019.7 |
| 20260507051331 | 11 | 43 | 0.0 | 0.0 | 0.00 | 0.00 | 0.00 | 70 | 1019.9 |
| 20260507050828 | 11 | 43 | 0.0 | 0.0 | 0.00 | 0.00 | 0.00 | 70 | 1019.7 |
| 20260507050324 | 11 | 47 | 0.0 | 0.0 | 0.00 | 0.00 | 0.00 | 70 | 1019.7 |
| 20260507045821 | 11 | 47 | 0.0 | 0.0 | 0.00 | 0.00 | 0.00 | 70 | 1019.8 |
| 20260507045318 | 11 | 47 | 0.0 | 0.0 | 0.00 | 0.00 | 0.00 | 71 | 1019.8 |
| 20260507044815 | 11 | 38 | 0.0 | 0.0 | 0.00 | 0.00 | 0.00 | 69 | 1019.8 |
| 20260507044311 | 11 | 41 | 0.0 | 0.0 | 0.00 | 0.00 | 0.00 | 66 | 1020.0 |
| 20260507043807 | 12 | 38 | 0.0 | 0.0 | 0.00 | 0.00 | 0.00 | 66 | 1020.0 |
| 20260507043304 | 12 | 36 | 0.0 | 0.0 | 0.00 | 0.00 | 0.00 | 65 | 1019.9 |
| 20260507042800 | 12 | 41 | 0.0 | 3.2 | 0.00 | 0.00 | 0.00 | 65 | 1019.9 |
| 20260507042256 | 12 | 43 | 0.0 | 0.0 | 0.00 | 0.00 | 0.00 | 65 | 1020.0 |
| 20260507041753 | 12 | 44 | 0.0 | 3.2 | 0.00 | 0.00 | 0.00 | 64 | 1020.0 |
| 20260507041250 | 12 | 54 | 0.0 | 3.2 | 0.00 | 0.00 | 0.00 | 63 | 1020.3 |
| 20260507040747 | 12 | 36 | 0.0 | 0.0 | 0.00 | 0.00 | 0.00 | 63 | 1020.2 |
| 20260507040243 | 12 | 38 | 0.0 | 0.0 | 0.00 | 0.00 | 0.00 | 63 | 1020.3 |
| 20260507035739 | 12 | 34 | 0.0 | 0.0 | 0.00 | 1.96 | 1.96 | 64 | 1020.3 |
| 20260507035234 | 12 | 40 | 0.0 | 0.0 | 0.00 | 1.96 | 1.96 | 65 | 1020.3 |
| 20260507034732 | 12 | 33 | 0.0 | 3.2 | 0.00 | 1.96 | 1.96 | 67 | 1020.3 |
| 20260507034229 | 12 | 37 | 0.0 | 0.0 | 0.00 | 1.96 | 1.96 | 64 | 1020.4 |
| 20260507033727 | 12 | 37 | 0.0 | 0.0 | 0.00 | 1.96 | 1.96 | 62 | 1020.2 |
| 20260507033225 | 12 | 40 | 0.0 | 3.2 | 0.00 | 1.96 | 1.96 | 62 | 1020.4 |
| 20260507032722 | 12 | 37 | 0.0 | 3.2 | 0.00 | 1.96 | 1.96 | 63 | 1020.3 |
| 20260507032218 | 12 | 36 | 0.0 | 0.0 | 0.00 | 1.96 | 1.96 | 61 | 1020.3 |
| 20260507031715 | 12 | 37 | 0.0 | 0.0 | 0.00 | 1.96 | 1.96 | 61 | 1020.2 |
| 20260507031211 | 12 | 48 | 0.0 | 0.0 | 0.00 | 1.96 | 1.96 | 60 | 1020.1 |
| 20260507030708 | 13 | 38 | 0.0 | 0.0 | 0.00 | 1.96 | 1.96 | 60 | 1020.3 |
| 20260507030206 | 13 | 36 | 0.0 | 0.0 | 0.00 | 1.96 | 1.96 | 61 | 1020.2 |
| 20260507025703 | 13 | 352 | 0.0 | 0.0 | 0.00 | 1.96 | 1.96 | 60 | 1020.3 |
| 20260507025159 | 13 | 33 | 0.0 | 3.2 | 0.00 | 1.96 | 1.96 | 59 | 1020.2 |
| 20260507024658 | 13 | 337 | 0.0 | 3.2 | 0.00 | 1.96 | 1.96 | 60 | 1019.8 |
| 20260507024154 | 13 | 119 | 1.6 | 4.8 | 0.00 | 1.96 | 1.96 | 58 | 1019.7 |
| 20260507023650 | 13 | 104 | 0.0 | 3.2 | 0.00 | 1.96 | 1.96 | 59 | 1019.7 |
| 20260507023148 | 13 | 337 | 0.0 | 4.8 | 0.00 | 1.96 | 1.96 | 61 | 1019.8 |
| 20260507022644 | 13 | 25 | 0.0 | 0.0 | 0.00 | 1.96 | 1.96 | 62 | 1019.5 |
| 20260507022140 | 13 | 17 | 0.0 | 3.2 | 0.00 | 1.96 | 1.96 | 62 | 1019.5 |
| 20260507021637 | 13 | 301 | 0.0 | 3.2 | 0.00 | 1.96 | 1.96 | 64 | 1019.4 |
| 20260507021132 | 13 | 112 | 1.6 | 3.2 | 0.00 | 1.96 | 1.96 | 63 | 1019.4 |
| 20260507020631 | 13 | 89 | 0.0 | 3.2 | 0.00 | 1.96 | 1.96 | 64 | 1019.4 |
| 20260507020126 | 13 | 26 | 0.0 | 3.2 | 0.00 | 1.96 | 1.96 | 64 | 1019.2 |
| 20260507015625 | 13 | 36 | 0.0 | 4.8 | 0.00 | 1.96 | 1.96 | 64 | 1018.9 |
| 20260507015122 | 13 | 29 | 0.0 | 0.0 | 0.00 | 1.96 | 1.96 | 63 | 1019.1 |
| 20260507014619 | 13 | 70 | 0.0 | 3.2 | 0.00 | 1.96 | 1.96 | 62 | 1019.1 |
| 20260507014114 | 13 | 326 | 1.6 | 3.2 | 0.00 | 1.96 | 1.96 | 63 | 1019.1 |
| 20260507013612 | 13 | 28 | 0.0 | 0.0 | 0.00 | 1.96 | 1.96 | 66 | 1019.3 |
| 20260507013108 | 13 | 9 | 0.0 | 0.0 | 0.00 | 1.96 | 1.96 | 64 | 1019.3 |
| 20260507012606 | 13 | 29 | 0.0 | 0.0 | 0.00 | 1.96 | 1.96 | 67 | 1019.4 |
| 20260507012101 | 13 | 26 | 0.0 | 0.0 | 0.00 | 1.96 | 1.96 | 68 | 1019.3 |
| 20260507011600 | 13 | 21 | 0.0 | 0.0 | 0.00 | 1.96 | 1.96 | 66 | 1019.3 |
| 20260507011055 | 13 | 34 | 0.0 | 0.0 | 0.00 | 1.96 | 1.96 | 65 | 1019.1 |
| 20260507010550 | 13 | 19 | 0.0 | 3.2 | 0.00 | 1.96 | 1.96 | 64 | 1019.4 |
| 20260507010046 | 13 | 31 | 0.0 | 0.0 | 0.00 | 1.96 | 1.96 | 65 | 1019.2 |
| 20260507005544 | 13 | 42 | 0.0 | 3.2 | 0.00 | 1.96 | 1.96 | 62 | 1019.4 |
| 20260507005040 | 13 | 22 | 0.0 | 0.0 | 0.00 | 1.96 | 1.96 | 64 | 1019.3 |
| 20260507004537 | 13 | 33 | 0.0 | 3.2 | 0.00 | 1.96 | 1.96 | 64 | 1019.0 |
| 20260507004035 | 13 | 18 | 0.0 | 0.0 | 0.00 | 1.96 | 1.96 | 63 | 1019.0 |
| 20260507003530 | 14 | 21 | 0.0 | 0.0 | 0.00 | 1.96 | 1.96 | 65 | 1018.9 |
| 20260507003025 | 14 | 284 | 0.0 | 3.2 | 0.00 | 1.96 | 1.96 | 63 | 1018.9 |
| 20260507002522 | 14 | 36 | 0.0 | 3.2 | 0.00 | 1.96 | 1.96 | 64 | 1019.1 |
| 20260507002018 | 14 | 24 | 0.0 | 3.2 | 0.00 | 1.96 | 1.96 | 61 | 1018.9 |
| 20260507001515 | 14 | 44 | 0.0 | 0.0 | 0.00 | 1.96 | 1.96 | 62 | 1018.9 |
| 20260507001013 | 14 | 17 | 0.0 | 0.0 | 0.00 | 1.96 | 1.96 | 62 | 1018.6 |
| 20260507000508 | 14 | 27 | 0.0 | 0.0 | 0.00 | 1.96 | 1.96 | 62 | 1018.8 |
| 20260507000004 | 14 | 25 | 0.0 | 3.2 | 0.00 | 1.96 | 1.96 | 61 | 1018.4 |
| 20260506235502 | 14 | 15 | 0.0 | 0.0 | 0.00 | 1.96 | 1.96 | 60 | 1018.5 |
| 20260506234957 | 14 | 13 | 0.0 | 3.2 | 0.00 | 1.96 | 1.96 | 59 | 1018.9 |
| 20260506234455 | 15 | 18 | 1.6 | 3.2 | 0.00 | 1.96 | 1.96 | 59 | 1018.6 |
| 20260506233952 | 15 | 352 | 3.2 | 4.8 | 0.00 | 1.96 | 1.96 | 60 | 1018.4 |
| 20260506233449 | 15 | 31 | 0.0 | 3.2 | 0.00 | 1.96 | 1.96 | 62 | 1018.4 |
| 20260506232945 | 15 | 23 | 0.0 | 4.8 | 0.00 | 1.96 | 1.96 | 62 | 1018.3 |
| 20260506232442 | 15 | 73 | 1.6 | 4.8 | 0.00 | 1.96 | 1.96 | 62 | 1018.6 |
| 20260506231937 | 15 | 23 | 0.0 | 3.2 | 0.00 | 1.96 | 1.96 | 62 | 1018.5 |
| 20260506231436 | 15 | 68 | 3.2 | 4.8 | 0.00 | 1.96 | 1.96 | 62 | 1018.5 |
| 20260506230932 | 15 | 32 | 0.0 | 3.2 | 0.00 | 1.96 | 1.96 | 62 | 1018.5 |
| 20260506230428 | 15 | 14 | 1.6 | 4.8 | 0.00 | 1.96 | 1.96 | 62 | 1018.2 |
| 20260506225925 | 15 | 42 | 0.0 | 0.0 | 0.00 | 1.96 | 1.96 | 63 | 1018.0 |
| 20260506225422 | 15 | 313 | 1.6 | 3.2 | 0.00 | 1.96 | 1.96 | 63 | 1017.3 |
| 20260506224919 | 15 | 27 | 0.0 | 0.0 | 0.00 | 1.96 | 1.96 | 63 | 1017.7 |
| 20260506224417 | 15 | 25 | 0.0 | 3.2 | 0.00 | 1.96 | 1.96 | 62 | 1017.6 |
| 20260506223913 | 16 | 30 | 1.6 | 4.8 | 0.00 | 1.96 | 1.96 | 61 | 1018.3 |
| 20260506223408 | 16 | 1 | 0.0 | 3.2 | 0.00 | 1.96 | 1.96 | 61 | 1018.3 |
| 20260506222906 | 16 | 22 | 0.0 | 3.2 | 0.00 | 1.96 | 1.96 | 63 | 1017.8 |
| 20260506222402 | 16 | 14 | 0.0 | 3.2 | 0.00 | 1.96 | 1.96 | 62 | 1017.5 |
| 20260506221859 | 16 | 27 | 0.0 | 3.2 | 0.00 | 1.96 | 1.96 | 63 | 1017.6 |
| 20260506221356 | 16 | 16 | 0.0 | 3.2 | 0.00 | 1.96 | 1.96 | 63 | 1017.5 |
| 20260506220854 | 16 | 30 | 0.0 | 3.2 | 0.00 | 1.96 | 1.96 | 63 | 1017.6 |
| 20260506220349 | 16 | 34 | 0.0 | 3.2 | 0.00 | 1.96 | 1.96 | 62 | 1017.4 |
| 20260506215846 | 16 | 28 | 1.6 | 3.2 | 0.00 | 1.96 | 1.96 | 64 | 1017.8 |
| 20260506215342 | 16 | 31 | 0.0 | 0.0 | 0.00 | 1.96 | 1.96 | 64 | 1017.7 |
| 20260506214838 | 16 | 162 | 0.0 | 4.8 | 0.00 | 1.96 | 1.96 | 63 | 1017.6 |
| 20260506214335 | 16 | 55 | 0.0 | 4.8 | 0.00 | 1.96 | 1.96 | 65 | 1018.1 |
| 20260506213833 | 16 | 34 | 1.6 | 3.2 | 0.00 | 1.96 | 1.96 | 64 | 1018.4 |
| 20260506213330 | 16 | 37 | 0.0 | 3.2 | 0.00 | 1.96 | 1.96 | 64 | 1018.3 |
| 20260506212827 | 16 | 18 | 0.0 | 3.2 | 0.00 | 1.96 | 1.96 | 65 | 1018.3 |
| 20260506212323 | 16 | 340 | 4.8 | 8.0 | 0.00 | 1.96 | 1.96 | 63 | 1018.3 |
| 20260506211818 | 16 | 33 | 1.6 | 4.8 | 0.00 | 1.96 | 1.96 | 63 | 1017.7 |
| 20260506211315 | 16 | 39 | 0.0 | 3.2 | 0.00 | 1.96 | 1.96 | 63 | 1018.2 |
| 20260506210812 | 16 | 12 | 1.6 | 3.2 | 0.00 | 1.96 | 1.96 | 64 | 1017.7 |
| 20260506210309 | 16 | 26 | 1.6 | 4.8 | 0.00 | 1.96 | 1.96 | 63 | 1017.8 |
| 20260506205806 | 16 | 316 | 1.6 | 8.0 | 0.00 | 1.96 | 1.96 | 62 | 1017.7 |
| 20260506205305 | 17 | 15 | 0.0 | 3.2 | 0.00 | 1.96 | 1.96 | 63 | 1017.6 |
| 20260506204758 | 17 | 15 | 0.0 | 3.2 | 0.00 | 1.96 | 1.96 | 64 | 1017.8 |
| 20260506204256 | 16 | 51 | 0.0 | 3.2 | 0.00 | 1.96 | 1.96 | 62 | 1017.7 |
| 20260506203754 | 16 | 23 | 0.0 | 4.8 | 0.00 | 1.96 | 1.96 | 63 | 1017.4 |
| 20260506203251 | 16 | 18 | 0.0 | 4.8 | 0.00 | 1.96 | 1.96 | 63 | 1017.7 |
| 20260506202748 | 16 | 8 | 3.2 | 3.2 | 0.00 | 1.96 | 1.96 | 61 | 1017.5 |
| 20260506202244 | 16 | 17 | 0.0 | 3.2 | 0.00 | 1.96 | 1.96 | 63 | 1018.0 |
| 20260506201741 | 17 | 27 | 1.6 | 4.8 | 0.00 | 1.96 | 1.96 | 61 | 1018.0 |
| 20260506201238 | 16 | 22 | 0.0 | 3.2 | 0.00 | 1.96 | 1.96 | 62 | 1017.8 |
| 20260506200735 | 17 | 29 | 0.0 | 3.2 | 0.00 | 1.96 | 1.96 | 62 | 1018.3 |
| 20260506200232 | 16 | 272 | 0.0 | 3.2 | 0.00 | 1.96 | 1.96 | 63 | 1018.1 |
| 20260506195728 | 16 | 15 | 0.0 | 3.2 | 0.00 | 1.96 | 1.96 | 62 | 1018.1 |
| 20260506195224 | 16 | 22 | 0.0 | 4.8 | 0.00 | 1.96 | 1.96 | 61 | 1018.3 |
| 20260506194722 | 16 | 15 | 0.0 | 3.2 | 0.00 | 1.96 | 1.96 | 63 | 1018.2 |
| 20260506194218 | 16 | 46 | 3.2 | 4.8 | 0.00 | 1.96 | 1.96 | 62 | 1018.2 |
| 20260506193716 | 16 | 32 | 1.6 | 4.8 | 0.00 | 1.96 | 1.96 | 61 | 1018.6 |
| 20260506193213 | 16 | 319 | 4.8 | 11.3 | 0.00 | 1.96 | 1.96 | 61 | 1018.4 |
| 20260506192709 | 17 | 207 | 4.8 | 4.8 | 0.00 | 1.96 | 1.96 | 59 | 1018.1 |
| 20260506192206 | 17 | 67 | 3.2 | 14.5 | 0.00 | 1.96 | 1.96 | 61 | 1018.2 |
| 20260506191703 | 17 | 157 | 0.0 | 3.2 | 0.00 | 1.96 | 1.96 | 60 | 1017.8 |
| 20260506191159 | 17 | 14 | 0.0 | 3.2 | 0.00 | 1.96 | 1.96 | 64 | 1017.8 |
| 20260506190656 | 17 | 175 | 3.2 | 4.8 | 0.00 | 1.96 | 1.96 | 61 | 1017.8 |
| 20260506190153 | 17 | 84 | 3.2 | 4.8 | 0.00 | 1.96 | 1.96 | 60 | 1018.2 |
| 20260506185650 | 17 | 40 | 0.0 | 3.2 | 0.00 | 1.96 | 1.96 | 62 | 1017.7 |
| 20260506185146 | 16 | 41 | 0.0 | 4.8 | 0.00 | 1.96 | 1.96 | 62 | 1018.0 |
| 20260506184644 | 17 | 133 | 3.2 | 4.8 | 0.00 | 1.96 | 1.96 | 62 | 1017.6 |
| 20260506184141 | 17 | 49 | 0.0 | 3.2 | 0.00 | 1.96 | 1.96 | 64 | 1018.1 |
| 20260506183638 | 17 | 38 | 0.0 | 3.2 | 0.00 | 1.96 | 1.96 | 62 | 1017.5 |
| 20260506183133 | 17 | 78 | 0.0 | 4.8 | 0.00 | 1.96 | 1.96 | 62 | 1017.7 |
| 20260506182631 | 17 | 55 | 0.0 | 3.2 | 0.00 | 1.96 | 1.96 | 61 | 1017.7 |
| 20260506182128 | 16 | 58 | 1.6 | 4.8 | 0.00 | 1.96 | 1.96 | 63 | 1017.7 |
| 20260506181626 | 16 | 46 | 0.0 | 3.2 | 0.00 | 1.96 | 1.96 | 63 | 1017.8 |
| 20260506181123 | 17 | 97 | 3.2 | 8.0 | 0.00 | 1.96 | 1.96 | 61 | 1017.8 |